Change the Weather History Date:

Friday, February 28, 2014

  Actual Average Record
Temperature  
Mean Temperature 32 °F 35 °F  
Max Temperature 45 °F 47 °F 77 °F (2006)
Min Temperature 18 °F 23 °F -18 °F (1960)
Degree Days  
Heating Degree Days 33    
Month to date heating degree days 1152  
Cooling Degree Days 0    
Month to date cooling degree days 0  
Moisture  
Dew Point 23 °F    
Average Humidity 81    
Maximum Humidity 100    
Minimum Humidity 62    
Precipitation  
Precipitation 0.00 in 0.02 in 0.48 in (1958)
Month to date precipitation 0.19 0.44  
Year to date precipitation 0.43 0.74  
Sea Level Pressure  
Sea Level Pressure 29.81 in    
Wind  
Wind Speed 11 mph (ENE)    
Max Wind Speed 23 mph    
Max Gust Speed 26 mph    
Visibility 8 miles    
Events Fog    
T = Trace of Precipitation, MM = Missing Value Source: NWS Daily Summary

Daily Weather History Graph

Daily Weather History Graph

Search for Another Location

Airport or City:

Trip Planner

Search our weather history database for the weather conditions in past years. The results will help you decide how hot, cold, wet, or windy it might be!

Date:

Astronomy

Feb. 28, 2014 Rise Set
Actual Time 6:27 AM MST 5:43 PM MST
Civil Twilight 6:00 AM MST 6:10 PM MST
Nautical Twilight 5:29 AM MST 6:42 PM MST
Astronomical Twilight 4:57 AM MST 7:13 PM MST
Moon 5:43 AM MST (2/28) 5:23 PM MST (2/28)
Length of Visible Light 12h 10m
Length of Day
11h 15m
Waning Crescent, 0% of the Moon is Illuminated
Feb 28
Waning Crescent
Mar 1
New
Mar 8
First Quarter
Mar 16
Full
Mar 23
Last Quarter

Hourly Weather History & Observations

Time (MST) Temp. Windchill Dew Point Humidity Pressure Visibility Wind Dir Wind Speed Gust Speed Precip Events Conditions
12:53 AM 30.9 °F 23.5 °F 25.0 °F 79% 29.53 in 10.0 mi NW 8.1 mph - N/A   Scattered Clouds
1:53 AM 30.0 °F 23.2 °F 26.1 °F 85% 29.53 in 10.0 mi NNW 6.9 mph - N/A   Overcast
2:53 AM 30.0 °F 26.5 °F 25.0 °F 82% 29.53 in 10.0 mi North 3.5 mph - N/A   Overcast
3:53 AM 32.0 °F 27.5 °F 25.0 °F 75% 29.54 in 10.0 mi NNW 4.6 mph - N/A   Mostly Cloudy
4:53 AM 30.9 °F 21.7 °F 26.1 °F 82% 29.57 in 10.0 mi West 11.5 mph - N/A   Overcast
5:53 AM 30.9 °F 22.8 °F 26.1 °F 82% 29.63 in 10.0 mi West 9.2 mph - N/A   Partly Cloudy
6:53 AM 30.9 °F 22.8 °F 27.0 °F 85% 29.65 in 10.0 mi West 9.2 mph - N/A   Clear
7:53 AM 41.0 °F 34.7 °F 30.9 °F 67% 29.67 in 10.0 mi West 10.4 mph - N/A   Scattered Clouds
8:53 AM 42.1 °F 36.6 °F 30.9 °F 65% 29.72 in 10.0 mi West 9.2 mph - N/A   Overcast
9:53 AM 45.0 °F 38.2 °F 32.0 °F 60% 29.75 in 10.0 mi NNW 15.0 mph - N/A   Mostly Cloudy
10:53 AM 39.9 °F 30.2 °F 28.9 °F 65% 29.81 in 10.0 mi NNE 20.7 mph - N/A   Partly Cloudy
11:53 AM 33.1 °F 21.2 °F 26.1 °F 75% 29.85 in 10.0 mi NNE 20.7 mph - N/A   Mostly Cloudy
12:14 PM 33.1 °F 22.6 °F 26.1 °F 75% 29.80 in 10.0 mi NNE 16.1 mph - N/A   Mostly Cloudy
12:53 PM 30.9 °F 19.4 °F 25.0 °F 79% 29.84 in 10.0 mi NE 17.3 mph - N/A   Overcast
1:17 PM 30.9 °F 19.8 °F 25.0 °F 79% 29.78 in 10.0 mi NNE 16.1 mph - N/A   Overcast
1:53 PM 30.0 °F 18.7 °F 24.1 °F 79% 29.86 in 10.0 mi NE 16.1 mph - N/A   Overcast
2:53 PM 28.0 °F 18.1 °F 23.0 °F 81% 29.88 in 10.0 mi NE 11.5 mph - N/A   Overcast
3:53 PM 26.1 °F 16.2 °F 23.0 °F 88% 29.87 in 10.0 mi NE 10.4 mph - N/A   Overcast
4:21 PM 25.0 °F 13.1 °F 23.0 °F 92% 29.80 in 10.0 mi ENE 13.8 mph - N/A   Overcast
4:44 PM 25.0 °F 14.2 °F 23.0 °F 92% 29.80 in 10.0 mi East 11.5 mph - N/A   Overcast
4:53 PM 25.0 °F 13.1 °F 23.0 °F 92% 29.89 in 10.0 mi East 13.8 mph - N/A   Overcast
5:53 PM 24.1 °F 13.1 °F 21.9 °F 91% 29.92 in 10.0 mi ESE 11.5 mph - N/A   Overcast
6:53 PM 23.0 °F 11.7 °F 21.0 °F 92% 29.96 in 10.0 mi East 11.5 mph - N/A   Overcast
7:02 PM 23.0 °F 10.6 °F 21.0 °F 92% 29.86 in 10.0 mi East 13.8 mph - N/A   Overcast
7:53 PM 21.9 °F 10.4 °F 21.0 °F 96% 29.95 in 10.0 mi ESE 11.5 mph - N/A   Overcast
8:21 PM 21.9 °F 9.8 °F 21.0 °F 96% 29.89 in 10.0 mi ESE 12.7 mph - N/A   Overcast
8:37 PM 21.9 °F 9.2 °F 19.9 °F 92% 29.88 in 10.0 mi ESE 13.8 mph - N/A   Overcast
8:53 PM 21.9 °F 8.7 °F 19.9 °F 92% 29.95 in 10.0 mi East 15.0 mph - N/A   Overcast
9:05 PM 21.9 °F 9.2 °F 19.9 °F 92% 29.89 in 10.0 mi ESE 13.8 mph - N/A   Overcast
9:44 PM 21.9 °F 8.7 °F 21.0 °F 96% 29.91 in 1.5 mi ESE 15.0 mph - N/A   Overcast
9:48 PM 21.2 °F 8.9 °F 21.2 °F 100% 29.92 in 1.0 mi ESE 12.7 mph - N/A   Overcast
9:53 PM 21.9 °F 8.7 °F 21.0 °F 96% 29.96 in 0.8 mi ESE 15.0 mph - N/A   Overcast
10:29 PM 19.9 °F 7.3 °F 19.0 °F 96% 29.90 in 1.2 mi East 12.7 mph - N/A   Overcast
10:31 PM 19.9 °F 8.6 °F 19.0 °F 96% 29.90 in 2.0 mi East 10.4 mph - N/A   Overcast
10:46 PM 19.9 °F 5.7 °F 19.0 °F 96% 29.90 in 1.2 mi East 16.1 mph - N/A   Overcast
10:50 PM 19.4 °F 4.5 °F 17.6 °F 93% 29.89 in 0.8 mi East 17.3 mph - N/A   Overcast
10:53 PM 19.0 °F 3.6 °F 18.0 °F 96% 29.97 in 0.5 mi East 18.4 mph - N/A Fog Light Freezing Fog
11:53 PM 18.0 °F 3.6 °F 16.0 °F 92% 29.99 in 0.2 mi East 15.0 mph - N/A Fog Light Freezing Fog